Index of /20260429/WXO-DD/model_rdps/10km/06/041
Name Last modified Size Description
Parent Directory -
20260429T06Z_MSC_RDPS_AbsoluteVorticity_IsbL-0250_RLatLon0.09_PT041H.grib2 2026-04-29 08:50 620K
20260429T06Z_MSC_RDPS_AbsoluteVorticity_IsbL-0500_RLatLon0.09_PT041H.grib2 2026-04-29 08:50 567K
20260429T06Z_MSC_RDPS_AbsoluteVorticity_IsbL-0700_RLatLon0.09_PT041H.grib2 2026-04-29 08:50 629K
20260429T06Z_MSC_RDPS_AbsoluteVorticity_IsbL-0850_RLatLon0.09_PT041H.grib2 2026-04-29 08:50 772K
20260429T06Z_MSC_RDPS_AirTemp_AGL-120m_RLatLon0.09_PT041H.grib2 2026-04-29 08:50 389K
20260429T06Z_MSC_RDPS_AirTemp_AGL-2m_RLatLon0.09_PT041H.grib2 2026-04-29 08:50 622K
20260429T06Z_MSC_RDPS_AirTemp_AGL-40m_RLatLon0.09_PT041H.grib2 2026-04-29 08:50 399K
20260429T06Z_MSC_RDPS_AirTemp_AGL-80m_RLatLon0.09_PT041H.grib2 2026-04-29 08:50 393K
20260429T06Z_MSC_RDPS_AirTemp_IsbL-0001_RLatLon0.09_PT041H.grib2 2026-04-29 08:50 269K
20260429T06Z_MSC_RDPS_AirTemp_IsbL-0005_RLatLon0.09_PT041H.grib2 2026-04-29 08:50 290K
20260429T06Z_MSC_RDPS_AirTemp_IsbL-0010_RLatLon0.09_PT041H.grib2 2026-04-29 08:50 305K
20260429T06Z_MSC_RDPS_AirTemp_IsbL-0020_RLatLon0.09_PT041H.grib2 2026-04-29 08:50 320K
20260429T06Z_MSC_RDPS_AirTemp_IsbL-0030_RLatLon0.09_PT041H.grib2 2026-04-29 08:50 342K
20260429T06Z_MSC_RDPS_AirTemp_IsbL-0050_RLatLon0.09_PT041H.grib2 2026-04-29 08:50 313K
20260429T06Z_MSC_RDPS_AirTemp_IsbL-0100_RLatLon0.09_PT041H.grib2 2026-04-29 08:50 424K
20260429T06Z_MSC_RDPS_AirTemp_IsbL-0150_RLatLon0.09_PT041H.grib2 2026-04-29 08:50 424K
20260429T06Z_MSC_RDPS_AirTemp_IsbL-0175_RLatLon0.09_PT041H.grib2 2026-04-29 08:50 414K
20260429T06Z_MSC_RDPS_AirTemp_IsbL-0200_RLatLon0.09_PT041H.grib2 2026-04-29 08:50 417K
20260429T06Z_MSC_RDPS_AirTemp_IsbL-0225_RLatLon0.09_PT041H.grib2 2026-04-29 08:50 419K
20260429T06Z_MSC_RDPS_AirTemp_IsbL-0250_RLatLon0.09_PT041H.grib2 2026-04-29 08:50 426K
20260429T06Z_MSC_RDPS_AirTemp_IsbL-0275_RLatLon0.09_PT041H.grib2 2026-04-29 08:50 405K
20260429T06Z_MSC_RDPS_AirTemp_IsbL-0300_RLatLon0.09_PT041H.grib2 2026-04-29 08:50 412K
20260429T06Z_MSC_RDPS_AirTemp_IsbL-0350_RLatLon0.09_PT041H.grib2 2026-04-29 08:50 425K
20260429T06Z_MSC_RDPS_AirTemp_IsbL-0400_RLatLon0.09_PT041H.grib2 2026-04-29 08:50 427K
20260429T06Z_MSC_RDPS_AirTemp_IsbL-0450_RLatLon0.09_PT041H.grib2 2026-04-29 08:50 433K
20260429T06Z_MSC_RDPS_AirTemp_IsbL-0500_RLatLon0.09_PT041H.grib2 2026-04-29 08:50 410K
20260429T06Z_MSC_RDPS_AirTemp_IsbL-0550_RLatLon0.09_PT041H.grib2 2026-04-29 08:50 429K
20260429T06Z_MSC_RDPS_AirTemp_IsbL-0600_RLatLon0.09_PT041H.grib2 2026-04-29 08:50 451K
20260429T06Z_MSC_RDPS_AirTemp_IsbL-0650_RLatLon0.09_PT041H.grib2 2026-04-29 08:50 364K
20260429T06Z_MSC_RDPS_AirTemp_IsbL-0700_RLatLon0.09_PT041H.grib2 2026-04-29 08:50 384K
20260429T06Z_MSC_RDPS_AirTemp_IsbL-0750_RLatLon0.09_PT041H.grib2 2026-04-29 08:50 412K
20260429T06Z_MSC_RDPS_AirTemp_IsbL-0800_RLatLon0.09_PT041H.grib2 2026-04-29 08:50 447K
20260429T06Z_MSC_RDPS_AirTemp_IsbL-0850_RLatLon0.09_PT041H.grib2 2026-04-29 08:50 491K
20260429T06Z_MSC_RDPS_AirTemp_IsbL-0875_RLatLon0.09_PT041H.grib2 2026-04-29 08:50 514K
20260429T06Z_MSC_RDPS_AirTemp_IsbL-0900_RLatLon0.09_PT041H.grib2 2026-04-29 08:50 525K
20260429T06Z_MSC_RDPS_AirTemp_IsbL-0925_RLatLon0.09_PT041H.grib2 2026-04-29 08:50 524K
20260429T06Z_MSC_RDPS_AirTemp_IsbL-0950_RLatLon0.09_PT041H.grib2 2026-04-29 08:50 523K
20260429T06Z_MSC_RDPS_AirTemp_IsbL-0970_RLatLon0.09_PT041H.grib2 2026-04-29 08:50 516K
20260429T06Z_MSC_RDPS_AirTemp_IsbL-0985_RLatLon0.09_PT041H.grib2 2026-04-29 08:50 508K
20260429T06Z_MSC_RDPS_AirTemp_IsbL-1000_RLatLon0.09_PT041H.grib2 2026-04-29 08:50 507K
20260429T06Z_MSC_RDPS_AirTemp_IsbL-1015_RLatLon0.09_PT041H.grib2 2026-04-29 08:50 502K
20260429T06Z_MSC_RDPS_Albedo_Sfc_RLatLon0.09_PT041H.grib2 2026-04-29 08:50 154K
20260429T06Z_MSC_RDPS_CAPE_Sfc_RLatLon0.09_PT041H.grib2 2026-04-29 08:50 1.8M
20260429T06Z_MSC_RDPS_CIN_Sfc_RLatLon0.09_PT041H.grib2 2026-04-29 08:50 1.3M
20260429T06Z_MSC_RDPS_CloudWater_EAtm_RLatLon0.09_PT041H.grib2 2026-04-29 08:50 224K
20260429T06Z_MSC_RDPS_ConvectivePrecip-Accum_Sfc_RLatLon0.09_PT041H.grib2 2026-04-29 08:50 1.0M
20260429T06Z_MSC_RDPS_DewPointDepression_AGL-2m_RLatLon0.09_PT041H.grib2 2026-04-29 08:50 414K
20260429T06Z_MSC_RDPS_DewPointDepression_IsbL-0001_RLatLon0.09_PT041H.grib2 2026-04-29 08:50 193
20260429T06Z_MSC_RDPS_DewPointDepression_IsbL-0005_RLatLon0.09_PT041H.grib2 2026-04-29 08:50 193
20260429T06Z_MSC_RDPS_DewPointDepression_IsbL-0010_RLatLon0.09_PT041H.grib2 2026-04-29 08:50 193
20260429T06Z_MSC_RDPS_DewPointDepression_IsbL-0020_RLatLon0.09_PT041H.grib2 2026-04-29 08:50 193
20260429T06Z_MSC_RDPS_DewPointDepression_IsbL-0030_RLatLon0.09_PT041H.grib2 2026-04-29 08:50 193
20260429T06Z_MSC_RDPS_DewPointDepression_IsbL-0050_RLatLon0.09_PT041H.grib2 2026-04-29 08:50 80K
20260429T06Z_MSC_RDPS_DewPointDepression_IsbL-0100_RLatLon0.09_PT041H.grib2 2026-04-29 08:50 128K
20260429T06Z_MSC_RDPS_DewPointDepression_IsbL-0150_RLatLon0.09_PT041H.grib2 2026-04-29 08:50 152K
20260429T06Z_MSC_RDPS_DewPointDepression_IsbL-0175_RLatLon0.09_PT041H.grib2 2026-04-29 08:50 184K
20260429T06Z_MSC_RDPS_DewPointDepression_IsbL-0200_RLatLon0.09_PT041H.grib2 2026-04-29 08:50 221K
20260429T06Z_MSC_RDPS_DewPointDepression_IsbL-0225_RLatLon0.09_PT041H.grib2 2026-04-29 08:50 266K
20260429T06Z_MSC_RDPS_DewPointDepression_IsbL-0250_RLatLon0.09_PT041H.grib2 2026-04-29 08:50 302K
20260429T06Z_MSC_RDPS_DewPointDepression_IsbL-0275_RLatLon0.09_PT041H.grib2 2026-04-29 08:50 309K
20260429T06Z_MSC_RDPS_DewPointDepression_IsbL-0300_RLatLon0.09_PT041H.grib2 2026-04-29 08:50 330K
20260429T06Z_MSC_RDPS_DewPointDepression_IsbL-0350_RLatLon0.09_PT041H.grib2 2026-04-29 08:50 335K
20260429T06Z_MSC_RDPS_DewPointDepression_IsbL-0400_RLatLon0.09_PT041H.grib2 2026-04-29 08:50 342K
20260429T06Z_MSC_RDPS_DewPointDepression_IsbL-0450_RLatLon0.09_PT041H.grib2 2026-04-29 08:50 353K
20260429T06Z_MSC_RDPS_DewPointDepression_IsbL-0500_RLatLon0.09_PT041H.grib2 2026-04-29 08:50 358K
20260429T06Z_MSC_RDPS_DewPointDepression_IsbL-0550_RLatLon0.09_PT041H.grib2 2026-04-29 08:50 369K
20260429T06Z_MSC_RDPS_DewPointDepression_IsbL-0600_RLatLon0.09_PT041H.grib2 2026-04-29 08:50 388K
20260429T06Z_MSC_RDPS_DewPointDepression_IsbL-0650_RLatLon0.09_PT041H.grib2 2026-04-29 08:50 395K
20260429T06Z_MSC_RDPS_DewPointDepression_IsbL-0700_RLatLon0.09_PT041H.grib2 2026-04-29 08:50 404K
20260429T06Z_MSC_RDPS_DewPointDepression_IsbL-0750_RLatLon0.09_PT041H.grib2 2026-04-29 08:50 423K
20260429T06Z_MSC_RDPS_DewPointDepression_IsbL-0800_RLatLon0.09_PT041H.grib2 2026-04-29 08:50 448K
20260429T06Z_MSC_RDPS_DewPointDepression_IsbL-0850_RLatLon0.09_PT041H.grib2 2026-04-29 08:50 469K
20260429T06Z_MSC_RDPS_DewPointDepression_IsbL-0875_RLatLon0.09_PT041H.grib2 2026-04-29 08:50 475K
20260429T06Z_MSC_RDPS_DewPointDepression_IsbL-0900_RLatLon0.09_PT041H.grib2 2026-04-29 08:50 470K
20260429T06Z_MSC_RDPS_DewPointDepression_IsbL-0925_RLatLon0.09_PT041H.grib2 2026-04-29 08:50 454K
20260429T06Z_MSC_RDPS_DewPointDepression_IsbL-0950_RLatLon0.09_PT041H.grib2 2026-04-29 08:50 444K
20260429T06Z_MSC_RDPS_DewPointDepression_IsbL-0970_RLatLon0.09_PT041H.grib2 2026-04-29 08:50 434K
20260429T06Z_MSC_RDPS_DewPointDepression_IsbL-0985_RLatLon0.09_PT041H.grib2 2026-04-29 08:50 429K
20260429T06Z_MSC_RDPS_DewPointDepression_IsbL-1000_RLatLon0.09_PT041H.grib2 2026-04-29 08:50 424K
20260429T06Z_MSC_RDPS_DewPointDepression_IsbL-1015_RLatLon0.09_PT041H.grib2 2026-04-29 08:50 414K
20260429T06Z_MSC_RDPS_DewPoint_AGL-2m_RLatLon0.09_PT041H.grib2 2026-04-29 08:50 309K
20260429T06Z_MSC_RDPS_DownwardLongwaveRadiationFlux-Accum_Sfc_RLatLon0.09_PT041H.grib2 2026-04-29 08:50 382K
20260429T06Z_MSC_RDPS_DownwardShortwaveRadiationFlux-Accum_NTAtm_RLatLon0.09_PT041H.grib2 2026-04-29 08:50 149K
20260429T06Z_MSC_RDPS_DownwardShortwaveRadiationFlux-Accum_Sfc_RLatLon0.09_PT041H.grib2 2026-04-29 08:50 539K
20260429T06Z_MSC_RDPS_FreezingRain-Accum1h_Sfc_RLatLon0.09_PT041H.grib2 2026-04-29 08:50 15K
20260429T06Z_MSC_RDPS_FreezingRain-Accum_Sfc_RLatLon0.09_PT041H.grib2 2026-04-29 08:50 147K
20260429T06Z_MSC_RDPS_GeopotentialHeight_IsbL-0001_RLatLon0.09_PT041H.grib2 2026-04-29 08:50 241K
20260429T06Z_MSC_RDPS_GeopotentialHeight_IsbL-0005_RLatLon0.09_PT041H.grib2 2026-04-29 08:50 336K
20260429T06Z_MSC_RDPS_GeopotentialHeight_IsbL-0010_RLatLon0.09_PT041H.grib2 2026-04-29 08:50 305K
20260429T06Z_MSC_RDPS_GeopotentialHeight_IsbL-0020_RLatLon0.09_PT041H.grib2 2026-04-29 08:50 304K
20260429T06Z_MSC_RDPS_GeopotentialHeight_IsbL-0030_RLatLon0.09_PT041H.grib2 2026-04-29 08:50 306K
20260429T06Z_MSC_RDPS_GeopotentialHeight_IsbL-0050_RLatLon0.09_PT041H.grib2 2026-04-29 08:50 341K
20260429T06Z_MSC_RDPS_GeopotentialHeight_IsbL-0100_RLatLon0.09_PT041H.grib2 2026-04-29 08:50 284K
20260429T06Z_MSC_RDPS_GeopotentialHeight_IsbL-0150_RLatLon0.09_PT041H.grib2 2026-04-29 08:50 227K
20260429T06Z_MSC_RDPS_GeopotentialHeight_IsbL-0175_RLatLon0.09_PT041H.grib2 2026-04-29 08:50 261K
20260429T06Z_MSC_RDPS_GeopotentialHeight_IsbL-0200_RLatLon0.09_PT041H.grib2 2026-04-29 08:50 264K
20260429T06Z_MSC_RDPS_GeopotentialHeight_IsbL-0225_RLatLon0.09_PT041H.grib2 2026-04-29 08:50 266K
20260429T06Z_MSC_RDPS_GeopotentialHeight_IsbL-0250_RLatLon0.09_PT041H.grib2 2026-04-29 08:50 267K
20260429T06Z_MSC_RDPS_GeopotentialHeight_IsbL-0275_RLatLon0.09_PT041H.grib2 2026-04-29 08:50 266K
20260429T06Z_MSC_RDPS_GeopotentialHeight_IsbL-0300_RLatLon0.09_PT041H.grib2 2026-04-29 08:50 265K
20260429T06Z_MSC_RDPS_GeopotentialHeight_IsbL-0350_RLatLon0.09_PT041H.grib2 2026-04-29 08:50 232K
20260429T06Z_MSC_RDPS_GeopotentialHeight_IsbL-0400_RLatLon0.09_PT041H.grib2 2026-04-29 08:50 229K
20260429T06Z_MSC_RDPS_GeopotentialHeight_IsbL-0450_RLatLon0.09_PT041H.grib2 2026-04-29 08:50 296K
20260429T06Z_MSC_RDPS_GeopotentialHeight_IsbL-0500_RLatLon0.09_PT041H.grib2 2026-04-29 08:50 292K
20260429T06Z_MSC_RDPS_GeopotentialHeight_IsbL-0550_RLatLon0.09_PT041H.grib2 2026-04-29 08:50 289K
20260429T06Z_MSC_RDPS_GeopotentialHeight_IsbL-0600_RLatLon0.09_PT041H.grib2 2026-04-29 08:50 258K
20260429T06Z_MSC_RDPS_GeopotentialHeight_IsbL-0650_RLatLon0.09_PT041H.grib2 2026-04-29 08:50 255K
20260429T06Z_MSC_RDPS_GeopotentialHeight_IsbL-0700_RLatLon0.09_PT041H.grib2 2026-04-29 08:50 336K
20260429T06Z_MSC_RDPS_GeopotentialHeight_IsbL-0750_RLatLon0.09_PT041H.grib2 2026-04-29 08:50 338K
20260429T06Z_MSC_RDPS_GeopotentialHeight_IsbL-0800_RLatLon0.09_PT041H.grib2 2026-04-29 08:50 343K
20260429T06Z_MSC_RDPS_GeopotentialHeight_IsbL-0850_RLatLon0.09_PT041H.grib2 2026-04-29 08:50 351K
20260429T06Z_MSC_RDPS_GeopotentialHeight_IsbL-0875_RLatLon0.09_PT041H.grib2 2026-04-29 08:50 355K
20260429T06Z_MSC_RDPS_GeopotentialHeight_IsbL-0900_RLatLon0.09_PT041H.grib2 2026-04-29 08:50 392K
20260429T06Z_MSC_RDPS_GeopotentialHeight_IsbL-0925_RLatLon0.09_PT041H.grib2 2026-04-29 08:50 394K
20260429T06Z_MSC_RDPS_GeopotentialHeight_IsbL-0950_RLatLon0.09_PT041H.grib2 2026-04-29 08:50 397K
20260429T06Z_MSC_RDPS_GeopotentialHeight_IsbL-0970_RLatLon0.09_PT041H.grib2 2026-04-29 08:50 403K
20260429T06Z_MSC_RDPS_GeopotentialHeight_IsbL-0985_RLatLon0.09_PT041H.grib2 2026-04-29 08:50 380K
20260429T06Z_MSC_RDPS_GeopotentialHeight_IsbL-1000_RLatLon0.09_PT041H.grib2 2026-04-29 08:50 392K
20260429T06Z_MSC_RDPS_GeopotentialHeight_IsbL-1015_RLatLon0.09_PT041H.grib2 2026-04-29 08:50 406K
20260429T06Z_MSC_RDPS_Humidex_Sfc_RLatLon0.09_PT041H.grib2 2026-04-29 08:50 2.4M
20260429T06Z_MSC_RDPS_IcePellets-Accum1h_Sfc_RLatLon0.09_PT041H.grib2 2026-04-29 08:50 2.7K
20260429T06Z_MSC_RDPS_IcePellets-Accum_Sfc_RLatLon0.09_PT041H.grib2 2026-04-29 08:50 20K
20260429T06Z_MSC_RDPS_KIndex_Sfc_RLatLon0.09_PT041H.grib2 2026-04-29 08:50 2.3M
20260429T06Z_MSC_RDPS_LatentHeatNetFlux_Sfc_RLatLon0.09_PT041H.grib2 2026-04-29 08:50 360K
20260429T06Z_MSC_RDPS_LiftedIndex-MU-VT_IsbL-0500_RLatLon0.09_PT041H.grib2 2026-04-29 08:50 2.4M
20260429T06Z_MSC_RDPS_NetLongwaveRadiationFlux-Accum_Sfc_RLatLon0.09_PT041H.grib2 2026-04-29 08:50 515K
20260429T06Z_MSC_RDPS_NetShortwaveRadiationFlux-Accum_Sfc_RLatLon0.09_PT041H.grib2 2026-04-29 08:50 541K
20260429T06Z_MSC_RDPS_PlanetaryBoundaryLayerHeight_Sfc_RLatLon0.09_PT041H.grib2 2026-04-29 08:50 1.0M
20260429T06Z_MSC_RDPS_Precip-Accum1h_Sfc_RLatLon0.09_PT041H.grib2 2026-04-29 08:50 1.2M
20260429T06Z_MSC_RDPS_Precip-Accum_Sfc_RLatLon0.09_PT041H.grib2 2026-04-29 08:50 1.9M
20260429T06Z_MSC_RDPS_PrecipRate_Sfc_RLatLon0.09_PT041H.grib2 2026-04-29 08:50 180K
20260429T06Z_MSC_RDPS_PrecipType-Instant_Sfc_RLatLon0.09_PT041H.grib2 2026-04-29 08:50 576K
20260429T06Z_MSC_RDPS_Pressure-Trend3h_Sfc_RLatLon0.09_PT041H.grib2 2026-04-29 08:50 1.2M
20260429T06Z_MSC_RDPS_Pressure_MSL_RLatLon0.09_PT041H.grib2 2026-04-29 08:50 326K
20260429T06Z_MSC_RDPS_Pressure_PVU-1.5_RLatLon0.09_PT041H.grib2 2026-04-29 08:50 2.5M
20260429T06Z_MSC_RDPS_Pressure_PVU-1_RLatLon0.09_PT041H.grib2 2026-04-29 08:50 2.4M
20260429T06Z_MSC_RDPS_Pressure_PVU-2_RLatLon0.09_PT041H.grib2 2026-04-29 08:50 2.4M
20260429T06Z_MSC_RDPS_Pressure_Sfc_RLatLon0.09_PT041H.grib2 2026-04-29 08:50 499K
20260429T06Z_MSC_RDPS_RadiativeTemp_Sfc_RLatLon0.09_PT041H.grib2 2026-04-29 08:50 317K
20260429T06Z_MSC_RDPS_Rain-Accum1h_Sfc_RLatLon0.09_PT041H.grib2 2026-04-29 08:50 624K
20260429T06Z_MSC_RDPS_Rain-Accum_Sfc_RLatLon0.09_PT041H.grib2 2026-04-29 08:50 1.5M
20260429T06Z_MSC_RDPS_RelativeHumidity_AGL-2m_RLatLon0.09_PT041H.grib2 2026-04-29 08:50 1.0M
20260429T06Z_MSC_RDPS_RelativeHumidity_IsbL-0010_RLatLon0.09_PT041H.grib2 2026-04-29 08:50 632K
20260429T06Z_MSC_RDPS_RelativeHumidity_IsbL-0020_RLatLon0.09_PT041H.grib2 2026-04-29 08:50 681K
20260429T06Z_MSC_RDPS_RelativeHumidity_IsbL-0030_RLatLon0.09_PT041H.grib2 2026-04-29 08:50 605K
20260429T06Z_MSC_RDPS_RelativeHumidity_IsbL-0050_RLatLon0.09_PT041H.grib2 2026-04-29 08:50 318K
20260429T06Z_MSC_RDPS_RelativeHumidity_IsbL-0100_RLatLon0.09_PT041H.grib2 2026-04-29 08:50 282K
20260429T06Z_MSC_RDPS_RelativeHumidity_IsbL-0150_RLatLon0.09_PT041H.grib2 2026-04-29 08:50 412K
20260429T06Z_MSC_RDPS_RelativeHumidity_IsbL-0175_RLatLon0.09_PT041H.grib2 2026-04-29 08:50 481K
20260429T06Z_MSC_RDPS_RelativeHumidity_IsbL-0200_RLatLon0.09_PT041H.grib2 2026-04-29 08:50 560K
20260429T06Z_MSC_RDPS_RelativeHumidity_IsbL-0225_RLatLon0.09_PT041H.grib2 2026-04-29 08:50 633K
20260429T06Z_MSC_RDPS_RelativeHumidity_IsbL-0250_RLatLon0.09_PT041H.grib2 2026-04-29 08:50 703K
20260429T06Z_MSC_RDPS_RelativeHumidity_IsbL-0275_RLatLon0.09_PT041H.grib2 2026-04-29 08:50 726K
20260429T06Z_MSC_RDPS_RelativeHumidity_IsbL-0300_RLatLon0.09_PT041H.grib2 2026-04-29 08:50 773K
20260429T06Z_MSC_RDPS_RelativeHumidity_IsbL-0350_RLatLon0.09_PT041H.grib2 2026-04-29 08:50 789K
20260429T06Z_MSC_RDPS_RelativeHumidity_IsbL-0400_RLatLon0.09_PT041H.grib2 2026-04-29 08:50 797K
20260429T06Z_MSC_RDPS_RelativeHumidity_IsbL-0450_RLatLon0.09_PT041H.grib2 2026-04-29 08:50 807K
20260429T06Z_MSC_RDPS_RelativeHumidity_IsbL-0500_RLatLon0.09_PT041H.grib2 2026-04-29 08:50 810K
20260429T06Z_MSC_RDPS_RelativeHumidity_IsbL-0550_RLatLon0.09_PT041H.grib2 2026-04-29 08:50 829K
20260429T06Z_MSC_RDPS_RelativeHumidity_IsbL-0600_RLatLon0.09_PT041H.grib2 2026-04-29 08:50 859K
20260429T06Z_MSC_RDPS_RelativeHumidity_IsbL-0650_RLatLon0.09_PT041H.grib2 2026-04-29 08:50 878K
20260429T06Z_MSC_RDPS_RelativeHumidity_IsbL-0700_RLatLon0.09_PT041H.grib2 2026-04-29 08:50 900K
20260429T06Z_MSC_RDPS_RelativeHumidity_IsbL-0750_RLatLon0.09_PT041H.grib2 2026-04-29 08:50 940K
20260429T06Z_MSC_RDPS_RelativeHumidity_IsbL-0800_RLatLon0.09_PT041H.grib2 2026-04-29 08:50 1.0M
20260429T06Z_MSC_RDPS_RelativeHumidity_IsbL-0850_RLatLon0.09_PT041H.grib2 2026-04-29 08:50 1.0M
20260429T06Z_MSC_RDPS_RelativeHumidity_IsbL-0875_RLatLon0.09_PT041H.grib2 2026-04-29 08:50 1.1M
20260429T06Z_MSC_RDPS_RelativeHumidity_IsbL-0900_RLatLon0.09_PT041H.grib2 2026-04-29 08:50 1.1M
20260429T06Z_MSC_RDPS_RelativeHumidity_IsbL-0925_RLatLon0.09_PT041H.grib2 2026-04-29 08:50 1.1M
20260429T06Z_MSC_RDPS_RelativeHumidity_IsbL-0950_RLatLon0.09_PT041H.grib2 2026-04-29 08:50 1.1M
20260429T06Z_MSC_RDPS_RelativeHumidity_IsbL-0970_RLatLon0.09_PT041H.grib2 2026-04-29 08:50 1.0M
20260429T06Z_MSC_RDPS_RelativeHumidity_IsbL-0985_RLatLon0.09_PT041H.grib2 2026-04-29 08:50 1.0M
20260429T06Z_MSC_RDPS_RelativeHumidity_IsbL-1000_RLatLon0.09_PT041H.grib2 2026-04-29 08:50 1.0M
20260429T06Z_MSC_RDPS_RelativeHumidity_IsbL-1015_RLatLon0.09_PT041H.grib2 2026-04-29 08:50 1.0M
20260429T06Z_MSC_RDPS_Runoff-Accum_Sfc_RLatLon0.09_PT041H.grib2 2026-04-29 08:50 63K
20260429T06Z_MSC_RDPS_SWEATIndex_Sfc_RLatLon0.09_PT041H.grib2 2026-04-29 08:50 2.4M
20260429T06Z_MSC_RDPS_SeeingIndex_EAtm_RLatLon0.09_PT041H.grib2 2026-04-29 08:50 1.0M
20260429T06Z_MSC_RDPS_SensibleHeatNetFlux_Sfc_RLatLon0.09_PT041H.grib2 2026-04-29 08:50 325K
20260429T06Z_MSC_RDPS_ShowalterIndex_IsbL-0500_RLatLon0.09_PT041H.grib2 2026-04-29 08:50 2.6M
20260429T06Z_MSC_RDPS_SkyTransparencyIndex_EAtm_RLatLon0.09_PT041H.grib2 2026-04-29 08:50 708K
20260429T06Z_MSC_RDPS_Snow-Accum1h_Sfc_RLatLon0.09_PT041H.grib2 2026-04-29 08:50 485K
20260429T06Z_MSC_RDPS_Snow-Accum_Sfc_RLatLon0.09_PT041H.grib2 2026-04-29 08:50 753K
20260429T06Z_MSC_RDPS_SnowDensity_Sfc_RLatLon0.09_PT041H.grib2 2026-04-29 08:50 177K
20260429T06Z_MSC_RDPS_SnowDepth_Sfc_RLatLon0.09_PT041H.grib2 2026-04-29 08:50 680K
20260429T06Z_MSC_RDPS_SoilTemp_DBS-0to10cm_RLatLon0.09_PT041H.grib2 2026-04-29 08:50 239K
20260429T06Z_MSC_RDPS_SoilTemp_Sfc_RLatLon0.09_PT041H.grib2 2026-04-29 08:50 278K
20260429T06Z_MSC_RDPS_SoilVolumetricIceContent_Sfc_RLatLon0.09_PT041H.grib2 2026-04-29 08:50 163K
20260429T06Z_MSC_RDPS_SoilVolumetricWaterContent_DBS-0to10cm_RLatLon0.09_PT041H.grib2 2026-04-29 08:50 268K
20260429T06Z_MSC_RDPS_SoilVolumetricWaterContent_DBS-0to1cm_RLatLon0.09_PT041H.grib2 2026-04-29 08:50 336K
20260429T06Z_MSC_RDPS_SpecificHumidity_AGL-120m_RLatLon0.09_PT041H.grib2 2026-04-29 08:50 489K
20260429T06Z_MSC_RDPS_SpecificHumidity_AGL-2m_RLatLon0.09_PT041H.grib2 2026-04-29 08:50 659K
20260429T06Z_MSC_RDPS_SpecificHumidity_AGL-40m_RLatLon0.09_PT041H.grib2 2026-04-29 08:50 495K
20260429T06Z_MSC_RDPS_SpecificHumidity_AGL-80m_RLatLon0.09_PT041H.grib2 2026-04-29 08:50 491K
20260429T06Z_MSC_RDPS_SpecificHumidity_IsbL-0001_RLatLon0.09_PT041H.grib2 2026-04-29 08:50 363K
20260429T06Z_MSC_RDPS_SpecificHumidity_IsbL-0005_RLatLon0.09_PT041H.grib2 2026-04-29 08:50 361K
20260429T06Z_MSC_RDPS_SpecificHumidity_IsbL-0010_RLatLon0.09_PT041H.grib2 2026-04-29 08:50 397K
20260429T06Z_MSC_RDPS_SpecificHumidity_IsbL-0020_RLatLon0.09_PT041H.grib2 2026-04-29 08:50 388K
20260429T06Z_MSC_RDPS_SpecificHumidity_IsbL-0030_RLatLon0.09_PT041H.grib2 2026-04-29 08:50 371K
20260429T06Z_MSC_RDPS_SpecificHumidity_IsbL-0050_RLatLon0.09_PT041H.grib2 2026-04-29 08:50 486K
20260429T06Z_MSC_RDPS_SpecificHumidity_IsbL-0100_RLatLon0.09_PT041H.grib2 2026-04-29 08:50 450K
20260429T06Z_MSC_RDPS_SpecificHumidity_IsbL-0150_RLatLon0.09_PT041H.grib2 2026-04-29 08:50 459K
20260429T06Z_MSC_RDPS_SpecificHumidity_IsbL-0175_RLatLon0.09_PT041H.grib2 2026-04-29 08:50 438K
20260429T06Z_MSC_RDPS_SpecificHumidity_IsbL-0200_RLatLon0.09_PT041H.grib2 2026-04-29 08:50 454K
20260429T06Z_MSC_RDPS_SpecificHumidity_IsbL-0225_RLatLon0.09_PT041H.grib2 2026-04-29 08:50 475K
20260429T06Z_MSC_RDPS_SpecificHumidity_IsbL-0250_RLatLon0.09_PT041H.grib2 2026-04-29 08:50 521K
20260429T06Z_MSC_RDPS_SpecificHumidity_IsbL-0275_RLatLon0.09_PT041H.grib2 2026-04-29 08:50 480K
20260429T06Z_MSC_RDPS_SpecificHumidity_IsbL-0300_RLatLon0.09_PT041H.grib2 2026-04-29 08:50 455K
20260429T06Z_MSC_RDPS_SpecificHumidity_IsbL-0350_RLatLon0.09_PT041H.grib2 2026-04-29 08:50 571K
20260429T06Z_MSC_RDPS_SpecificHumidity_IsbL-0400_RLatLon0.09_PT041H.grib2 2026-04-29 08:50 523K
20260429T06Z_MSC_RDPS_SpecificHumidity_IsbL-0450_RLatLon0.09_PT041H.grib2 2026-04-29 08:50 578K
20260429T06Z_MSC_RDPS_SpecificHumidity_IsbL-0500_RLatLon0.09_PT041H.grib2 2026-04-29 08:50 513K
20260429T06Z_MSC_RDPS_SpecificHumidity_IsbL-0550_RLatLon0.09_PT041H.grib2 2026-04-29 08:50 588K
20260429T06Z_MSC_RDPS_SpecificHumidity_IsbL-0600_RLatLon0.09_PT041H.grib2 2026-04-29 08:50 649K
20260429T06Z_MSC_RDPS_SpecificHumidity_IsbL-0650_RLatLon0.09_PT041H.grib2 2026-04-29 08:50 570K
20260429T06Z_MSC_RDPS_SpecificHumidity_IsbL-0700_RLatLon0.09_PT041H.grib2 2026-04-29 08:50 612K
20260429T06Z_MSC_RDPS_SpecificHumidity_IsbL-0750_RLatLon0.09_PT041H.grib2 2026-04-29 08:50 667K
20260429T06Z_MSC_RDPS_SpecificHumidity_IsbL-0800_RLatLon0.09_PT041H.grib2 2026-04-29 08:50 740K
20260429T06Z_MSC_RDPS_SpecificHumidity_IsbL-0850_RLatLon0.09_PT041H.grib2 2026-04-29 08:50 803K
20260429T06Z_MSC_RDPS_SpecificHumidity_IsbL-0875_RLatLon0.09_PT041H.grib2 2026-04-29 08:50 830K
20260429T06Z_MSC_RDPS_SpecificHumidity_IsbL-0900_RLatLon0.09_PT041H.grib2 2026-04-29 08:50 847K
20260429T06Z_MSC_RDPS_SpecificHumidity_IsbL-0925_RLatLon0.09_PT041H.grib2 2026-04-29 08:50 710K
20260429T06Z_MSC_RDPS_SpecificHumidity_IsbL-0950_RLatLon0.09_PT041H.grib2 2026-04-29 08:50 709K
20260429T06Z_MSC_RDPS_SpecificHumidity_IsbL-0970_RLatLon0.09_PT041H.grib2 2026-04-29 08:50 697K
20260429T06Z_MSC_RDPS_SpecificHumidity_IsbL-0985_RLatLon0.09_PT041H.grib2 2026-04-29 08:50 686K
20260429T06Z_MSC_RDPS_SpecificHumidity_IsbL-1000_RLatLon0.09_PT041H.grib2 2026-04-29 08:50 679K
20260429T06Z_MSC_RDPS_SpecificHumidity_IsbL-1015_RLatLon0.09_PT041H.grib2 2026-04-29 08:50 669K
20260429T06Z_MSC_RDPS_SpecificHumidity_Sfc_RLatLon0.09_PT041H.grib2 2026-04-29 08:50 336K
20260429T06Z_MSC_RDPS_StormRelativeHelicity_EtaL-10000_RLatLon0.09_PT041H.grib2 2026-04-29 08:50 1.1M
20260429T06Z_MSC_RDPS_StormSeverityIndex_EtaL-10000_RLatLon0.09_PT041H.grib2 2026-04-29 08:50 1.2M
20260429T06Z_MSC_RDPS_Thickness_IsbL-0850to0700_RLatLon0.09_PT041H.grib2 2026-04-29 08:50 177K
20260429T06Z_MSC_RDPS_Thickness_IsbL-1000to0500_RLatLon0.09_PT041H.grib2 2026-04-29 08:50 137K
20260429T06Z_MSC_RDPS_Thickness_IsbL-1000to0850_RLatLon0.09_PT041H.grib2 2026-04-29 08:50 185K
20260429T06Z_MSC_RDPS_TotalCloudCover_Sfc_RLatLon0.09_PT041H.grib2 2026-04-29 08:50 653K
20260429T06Z_MSC_RDPS_TotalTotalsIndex_Sfc_RLatLon0.09_PT041H.grib2 2026-04-29 08:50 2.3M
20260429T06Z_MSC_RDPS_UVIndex-ClearSky_Sfc_RLatLon0.09_PT041H.grib2 2026-04-29 08:50 199K
20260429T06Z_MSC_RDPS_UVIndex_Sfc_RLatLon0.09_PT041H.grib2 2026-04-29 08:50 436K
20260429T06Z_MSC_RDPS_UpwardLongwaveRadiationFlux_NTAtm_RLatLon0.09_PT041H.grib2 2026-04-29 08:50 499K
20260429T06Z_MSC_RDPS_UpwardShortwaveRadiationFlux_NTAtm_RLatLon0.09_PT041H.grib2 2026-04-29 08:50 389K
20260429T06Z_MSC_RDPS_VerticalVelocity_IsbL-0250_RLatLon0.09_PT041H.grib2 2026-04-29 08:50 555K
20260429T06Z_MSC_RDPS_VerticalVelocity_IsbL-0500_RLatLon0.09_PT041H.grib2 2026-04-29 08:50 544K
20260429T06Z_MSC_RDPS_VerticalVelocity_IsbL-0700_RLatLon0.09_PT041H.grib2 2026-04-29 08:50 599K
20260429T06Z_MSC_RDPS_VerticalVelocity_IsbL-0850_RLatLon0.09_PT041H.grib2 2026-04-29 08:50 520K
20260429T06Z_MSC_RDPS_VerticalWindShear_EtaL-6500_RLatLon0.09_PT041H.grib2 2026-04-29 08:50 1.2M
20260429T06Z_MSC_RDPS_WindChill_Sfc_RLatLon0.09_PT041H.grib2 2026-04-29 08:50 1.1M
20260429T06Z_MSC_RDPS_WindDir_AGL-10m_RLatLon0.09_PT041H.grib2 2026-04-29 08:50 964K
20260429T06Z_MSC_RDPS_WindDir_AGL-120m_RLatLon0.09_PT041H.grib2 2026-04-29 08:50 612K
20260429T06Z_MSC_RDPS_WindDir_AGL-40m_RLatLon0.09_PT041H.grib2 2026-04-29 08:50 634K
20260429T06Z_MSC_RDPS_WindDir_AGL-80m_RLatLon0.09_PT041H.grib2 2026-04-29 08:50 620K
20260429T06Z_MSC_RDPS_WindDir_IsbL-0001_RLatLon0.09_PT041H.grib2 2026-04-29 08:50 322K
20260429T06Z_MSC_RDPS_WindDir_IsbL-0005_RLatLon0.09_PT041H.grib2 2026-04-29 08:50 373K
20260429T06Z_MSC_RDPS_WindDir_IsbL-0010_RLatLon0.09_PT041H.grib2 2026-04-29 08:50 383K
20260429T06Z_MSC_RDPS_WindDir_IsbL-0020_RLatLon0.09_PT041H.grib2 2026-04-29 08:50 425K
20260429T06Z_MSC_RDPS_WindDir_IsbL-0030_RLatLon0.09_PT041H.grib2 2026-04-29 08:50 414K
20260429T06Z_MSC_RDPS_WindDir_IsbL-0050_RLatLon0.09_PT041H.grib2 2026-04-29 08:50 420K
20260429T06Z_MSC_RDPS_WindDir_IsbL-0100_RLatLon0.09_PT041H.grib2 2026-04-29 08:50 425K
20260429T06Z_MSC_RDPS_WindDir_IsbL-0150_RLatLon0.09_PT041H.grib2 2026-04-29 08:50 429K
20260429T06Z_MSC_RDPS_WindDir_IsbL-0175_RLatLon0.09_PT041H.grib2 2026-04-29 08:50 448K
20260429T06Z_MSC_RDPS_WindDir_IsbL-0200_RLatLon0.09_PT041H.grib2 2026-04-29 08:50 457K
20260429T06Z_MSC_RDPS_WindDir_IsbL-0225_RLatLon0.09_PT041H.grib2 2026-04-29 08:50 461K
20260429T06Z_MSC_RDPS_WindDir_IsbL-0250_RLatLon0.09_PT041H.grib2 2026-04-29 08:50 461K
20260429T06Z_MSC_RDPS_WindDir_IsbL-0275_RLatLon0.09_PT041H.grib2 2026-04-29 08:50 484K
20260429T06Z_MSC_RDPS_WindDir_IsbL-0300_RLatLon0.09_PT041H.grib2 2026-04-29 08:50 481K
20260429T06Z_MSC_RDPS_WindDir_IsbL-0350_RLatLon0.09_PT041H.grib2 2026-04-29 08:50 498K
20260429T06Z_MSC_RDPS_WindDir_IsbL-0400_RLatLon0.09_PT041H.grib2 2026-04-29 08:50 508K
20260429T06Z_MSC_RDPS_WindDir_IsbL-0450_RLatLon0.09_PT041H.grib2 2026-04-29 08:50 519K
20260429T06Z_MSC_RDPS_WindDir_IsbL-0500_RLatLon0.09_PT041H.grib2 2026-04-29 08:50 535K
20260429T06Z_MSC_RDPS_WindDir_IsbL-0550_RLatLon0.09_PT041H.grib2 2026-04-29 08:50 559K
20260429T06Z_MSC_RDPS_WindDir_IsbL-0600_RLatLon0.09_PT041H.grib2 2026-04-29 08:50 591K
20260429T06Z_MSC_RDPS_WindDir_IsbL-0650_RLatLon0.09_PT041H.grib2 2026-04-29 08:50 636K
20260429T06Z_MSC_RDPS_WindDir_IsbL-0700_RLatLon0.09_PT041H.grib2 2026-04-29 08:50 689K
20260429T06Z_MSC_RDPS_WindDir_IsbL-0750_RLatLon0.09_PT041H.grib2 2026-04-29 08:50 739K
20260429T06Z_MSC_RDPS_WindDir_IsbL-0800_RLatLon0.09_PT041H.grib2 2026-04-29 08:50 797K
20260429T06Z_MSC_RDPS_WindDir_IsbL-0850_RLatLon0.09_PT041H.grib2 2026-04-29 08:50 854K
20260429T06Z_MSC_RDPS_WindDir_IsbL-0875_RLatLon0.09_PT041H.grib2 2026-04-29 08:50 879K
20260429T06Z_MSC_RDPS_WindDir_IsbL-0900_RLatLon0.09_PT041H.grib2 2026-04-29 08:50 902K
20260429T06Z_MSC_RDPS_WindDir_IsbL-0925_RLatLon0.09_PT041H.grib2 2026-04-29 08:50 914K
20260429T06Z_MSC_RDPS_WindDir_IsbL-0950_RLatLon0.09_PT041H.grib2 2026-04-29 08:50 916K
20260429T06Z_MSC_RDPS_WindDir_IsbL-0970_RLatLon0.09_PT041H.grib2 2026-04-29 08:50 921K
20260429T06Z_MSC_RDPS_WindDir_IsbL-0985_RLatLon0.09_PT041H.grib2 2026-04-29 08:50 932K
20260429T06Z_MSC_RDPS_WindDir_IsbL-1000_RLatLon0.09_PT041H.grib2 2026-04-29 08:50 944K
20260429T06Z_MSC_RDPS_WindDir_IsbL-1015_RLatLon0.09_PT041H.grib2 2026-04-29 08:50 958K
20260429T06Z_MSC_RDPS_WindGust-Max_AGL-10m_RLatLon0.09_PT041H.grib2 2026-04-29 08:50 1.0M
20260429T06Z_MSC_RDPS_WindGust-Min_AGL-10m_RLatLon0.09_PT041H.grib2 2026-04-29 08:50 967K
20260429T06Z_MSC_RDPS_WindGust_AGL-10m_RLatLon0.09_PT041H.grib2 2026-04-29 08:50 1.0M
20260429T06Z_MSC_RDPS_WindSpeed_AGL-10m_RLatLon0.09_PT041H.grib2 2026-04-29 08:50 832K
20260429T06Z_MSC_RDPS_WindSpeed_AGL-120m_RLatLon0.09_PT041H.grib2 2026-04-29 08:50 530K
20260429T06Z_MSC_RDPS_WindSpeed_AGL-40m_RLatLon0.09_PT041H.grib2 2026-04-29 08:50 533K
20260429T06Z_MSC_RDPS_WindSpeed_AGL-80m_RLatLon0.09_PT041H.grib2 2026-04-29 08:50 530K
20260429T06Z_MSC_RDPS_WindSpeed_IsbL-0001_RLatLon0.09_PT041H.grib2 2026-04-29 08:50 253K
20260429T06Z_MSC_RDPS_WindSpeed_IsbL-0005_RLatLon0.09_PT041H.grib2 2026-04-29 08:50 386K
20260429T06Z_MSC_RDPS_WindSpeed_IsbL-0010_RLatLon0.09_PT041H.grib2 2026-04-29 08:50 403K
20260429T06Z_MSC_RDPS_WindSpeed_IsbL-0020_RLatLon0.09_PT041H.grib2 2026-04-29 08:50 329K
20260429T06Z_MSC_RDPS_WindSpeed_IsbL-0030_RLatLon0.09_PT041H.grib2 2026-04-29 08:50 328K
20260429T06Z_MSC_RDPS_WindSpeed_IsbL-0050_RLatLon0.09_PT041H.grib2 2026-04-29 08:50 454K
20260429T06Z_MSC_RDPS_WindSpeed_IsbL-0100_RLatLon0.09_PT041H.grib2 2026-04-29 08:50 477K
20260429T06Z_MSC_RDPS_WindSpeed_IsbL-0150_RLatLon0.09_PT041H.grib2 2026-04-29 08:50 383K
20260429T06Z_MSC_RDPS_WindSpeed_IsbL-0175_RLatLon0.09_PT041H.grib2 2026-04-29 08:50 428K
20260429T06Z_MSC_RDPS_WindSpeed_IsbL-0200_RLatLon0.09_PT041H.grib2 2026-04-29 08:50 447K
20260429T06Z_MSC_RDPS_WindSpeed_IsbL-0225_RLatLon0.09_PT041H.grib2 2026-04-29 08:50 454K
20260429T06Z_MSC_RDPS_WindSpeed_IsbL-0250_RLatLon0.09_PT041H.grib2 2026-04-29 08:50 457K
20260429T06Z_MSC_RDPS_WindSpeed_IsbL-0275_RLatLon0.09_PT041H.grib2 2026-04-29 08:50 474K
20260429T06Z_MSC_RDPS_WindSpeed_IsbL-0300_RLatLon0.09_PT041H.grib2 2026-04-29 08:50 469K
20260429T06Z_MSC_RDPS_WindSpeed_IsbL-0350_RLatLon0.09_PT041H.grib2 2026-04-29 08:50 480K
20260429T06Z_MSC_RDPS_WindSpeed_IsbL-0400_RLatLon0.09_PT041H.grib2 2026-04-29 08:50 483K
20260429T06Z_MSC_RDPS_WindSpeed_IsbL-0450_RLatLon0.09_PT041H.grib2 2026-04-29 08:50 467K
20260429T06Z_MSC_RDPS_WindSpeed_IsbL-0500_RLatLon0.09_PT041H.grib2 2026-04-29 08:50 467K
20260429T06Z_MSC_RDPS_WindSpeed_IsbL-0550_RLatLon0.09_PT041H.grib2 2026-04-29 08:50 468K
20260429T06Z_MSC_RDPS_WindSpeed_IsbL-0600_RLatLon0.09_PT041H.grib2 2026-04-29 08:50 477K
20260429T06Z_MSC_RDPS_WindSpeed_IsbL-0650_RLatLon0.09_PT041H.grib2 2026-04-29 08:50 618K
20260429T06Z_MSC_RDPS_WindSpeed_IsbL-0700_RLatLon0.09_PT041H.grib2 2026-04-29 08:50 643K
20260429T06Z_MSC_RDPS_WindSpeed_IsbL-0750_RLatLon0.09_PT041H.grib2 2026-04-29 08:50 671K
20260429T06Z_MSC_RDPS_WindSpeed_IsbL-0800_RLatLon0.09_PT041H.grib2 2026-04-29 08:50 755K
20260429T06Z_MSC_RDPS_WindSpeed_IsbL-0850_RLatLon0.09_PT041H.grib2 2026-04-29 08:50 805K
20260429T06Z_MSC_RDPS_WindSpeed_IsbL-0875_RLatLon0.09_PT041H.grib2 2026-04-29 08:50 826K
20260429T06Z_MSC_RDPS_WindSpeed_IsbL-0900_RLatLon0.09_PT041H.grib2 2026-04-29 08:50 844K
20260429T06Z_MSC_RDPS_WindSpeed_IsbL-0925_RLatLon0.09_PT041H.grib2 2026-04-29 08:50 854K
20260429T06Z_MSC_RDPS_WindSpeed_IsbL-0950_RLatLon0.09_PT041H.grib2 2026-04-29 08:50 856K
20260429T06Z_MSC_RDPS_WindSpeed_IsbL-0970_RLatLon0.09_PT041H.grib2 2026-04-29 08:50 856K
20260429T06Z_MSC_RDPS_WindSpeed_IsbL-0985_RLatLon0.09_PT041H.grib2 2026-04-29 08:50 849K
20260429T06Z_MSC_RDPS_WindSpeed_IsbL-1000_RLatLon0.09_PT041H.grib2 2026-04-29 08:50 843K
20260429T06Z_MSC_RDPS_WindSpeed_IsbL-1015_RLatLon0.09_PT041H.grib2 2026-04-29 08:50 833K
20260429T06Z_MSC_RDPS_WindU_AGL-10m_RLatLon0.09_PT041H.grib2 2026-04-29 08:50 431K
20260429T06Z_MSC_RDPS_WindU_AGL-120m_RLatLon0.09_PT041H.grib2 2026-04-29 08:50 532K
20260429T06Z_MSC_RDPS_WindU_AGL-40m_RLatLon0.09_PT041H.grib2 2026-04-29 08:50 534K
20260429T06Z_MSC_RDPS_WindU_AGL-80m_RLatLon0.09_PT041H.grib2 2026-04-29 08:50 533K
20260429T06Z_MSC_RDPS_WindU_IsbL-0001_RLatLon0.09_PT041H.grib2 2026-04-29 08:50 243K
20260429T06Z_MSC_RDPS_WindU_IsbL-0005_RLatLon0.09_PT041H.grib2 2026-04-29 08:50 287K
20260429T06Z_MSC_RDPS_WindU_IsbL-0010_RLatLon0.09_PT041H.grib2 2026-04-29 08:50 300K
20260429T06Z_MSC_RDPS_WindU_IsbL-0020_RLatLon0.09_PT041H.grib2 2026-04-29 08:50 355K
20260429T06Z_MSC_RDPS_WindU_IsbL-0030_RLatLon0.09_PT041H.grib2 2026-04-29 08:50 317K
20260429T06Z_MSC_RDPS_WindU_IsbL-0050_RLatLon0.09_PT041H.grib2 2026-04-29 08:50 344K
20260429T06Z_MSC_RDPS_WindU_IsbL-0100_RLatLon0.09_PT041H.grib2 2026-04-29 08:50 433K
20260429T06Z_MSC_RDPS_WindU_IsbL-0150_RLatLon0.09_PT041H.grib2 2026-04-29 08:50 400K
20260429T06Z_MSC_RDPS_WindU_IsbL-0175_RLatLon0.09_PT041H.grib2 2026-04-29 08:50 424K
20260429T06Z_MSC_RDPS_WindU_IsbL-0200_RLatLon0.09_PT041H.grib2 2026-04-29 08:50 440K
20260429T06Z_MSC_RDPS_WindU_IsbL-0225_RLatLon0.09_PT041H.grib2 2026-04-29 08:50 346K
20260429T06Z_MSC_RDPS_WindU_IsbL-0250_RLatLon0.09_PT041H.grib2 2026-04-29 08:50 348K
20260429T06Z_MSC_RDPS_WindU_IsbL-0275_RLatLon0.09_PT041H.grib2 2026-04-29 08:50 362K
20260429T06Z_MSC_RDPS_WindU_IsbL-0300_RLatLon0.09_PT041H.grib2 2026-04-29 08:50 357K
20260429T06Z_MSC_RDPS_WindU_IsbL-0350_RLatLon0.09_PT041H.grib2 2026-04-29 08:50 365K
20260429T06Z_MSC_RDPS_WindU_IsbL-0400_RLatLon0.09_PT041H.grib2 2026-04-29 08:50 368K
20260429T06Z_MSC_RDPS_WindU_IsbL-0450_RLatLon0.09_PT041H.grib2 2026-04-29 08:50 471K
20260429T06Z_MSC_RDPS_WindU_IsbL-0500_RLatLon0.09_PT041H.grib2 2026-04-29 08:50 473K
20260429T06Z_MSC_RDPS_WindU_IsbL-0550_RLatLon0.09_PT041H.grib2 2026-04-29 08:50 474K
20260429T06Z_MSC_RDPS_WindU_IsbL-0600_RLatLon0.09_PT041H.grib2 2026-04-29 08:50 484K
20260429T06Z_MSC_RDPS_WindU_IsbL-0650_RLatLon0.09_PT041H.grib2 2026-04-29 08:50 488K
20260429T06Z_MSC_RDPS_WindU_IsbL-0700_RLatLon0.09_PT041H.grib2 2026-04-29 08:50 511K
20260429T06Z_MSC_RDPS_WindU_IsbL-0750_RLatLon0.09_PT041H.grib2 2026-04-29 08:50 536K
20260429T06Z_MSC_RDPS_WindU_IsbL-0800_RLatLon0.09_PT041H.grib2 2026-04-29 08:50 571K
20260429T06Z_MSC_RDPS_WindU_IsbL-0850_RLatLon0.09_PT041H.grib2 2026-04-29 08:50 615K
20260429T06Z_MSC_RDPS_WindU_IsbL-0875_RLatLon0.09_PT041H.grib2 2026-04-29 08:50 632K
20260429T06Z_MSC_RDPS_WindU_IsbL-0900_RLatLon0.09_PT041H.grib2 2026-04-29 08:50 647K
20260429T06Z_MSC_RDPS_WindU_IsbL-0925_RLatLon0.09_PT041H.grib2 2026-04-29 08:50 654K
20260429T06Z_MSC_RDPS_WindU_IsbL-0950_RLatLon0.09_PT041H.grib2 2026-04-29 08:50 652K
20260429T06Z_MSC_RDPS_WindU_IsbL-0970_RLatLon0.09_PT041H.grib2 2026-04-29 08:50 651K
20260429T06Z_MSC_RDPS_WindU_IsbL-0985_RLatLon0.09_PT041H.grib2 2026-04-29 08:50 790K
20260429T06Z_MSC_RDPS_WindU_IsbL-1000_RLatLon0.09_PT041H.grib2 2026-04-29 08:50 785K
20260429T06Z_MSC_RDPS_WindU_IsbL-1015_RLatLon0.09_PT041H.grib2 2026-04-29 08:50 824K
20260429T06Z_MSC_RDPS_WindV_AGL-10m_RLatLon0.09_PT041H.grib2 2026-04-29 08:50 427K
20260429T06Z_MSC_RDPS_WindV_AGL-120m_RLatLon0.09_PT041H.grib2 2026-04-29 08:50 526K
20260429T06Z_MSC_RDPS_WindV_AGL-40m_RLatLon0.09_PT041H.grib2 2026-04-29 08:50 528K
20260429T06Z_MSC_RDPS_WindV_AGL-80m_RLatLon0.09_PT041H.grib2 2026-04-29 08:50 527K
20260429T06Z_MSC_RDPS_WindV_IsbL-0001_RLatLon0.09_PT041H.grib2 2026-04-29 08:50 245K
20260429T06Z_MSC_RDPS_WindV_IsbL-0005_RLatLon0.09_PT041H.grib2 2026-04-29 08:50 288K
20260429T06Z_MSC_RDPS_WindV_IsbL-0010_RLatLon0.09_PT041H.grib2 2026-04-29 08:50 303K
20260429T06Z_MSC_RDPS_WindV_IsbL-0020_RLatLon0.09_PT041H.grib2 2026-04-29 08:50 320K
20260429T06Z_MSC_RDPS_WindV_IsbL-0030_RLatLon0.09_PT041H.grib2 2026-04-29 08:50 321K
20260429T06Z_MSC_RDPS_WindV_IsbL-0050_RLatLon0.09_PT041H.grib2 2026-04-29 08:50 344K
20260429T06Z_MSC_RDPS_WindV_IsbL-0100_RLatLon0.09_PT041H.grib2 2026-04-29 08:50 428K
20260429T06Z_MSC_RDPS_WindV_IsbL-0150_RLatLon0.09_PT041H.grib2 2026-04-29 08:50 396K
20260429T06Z_MSC_RDPS_WindV_IsbL-0175_RLatLon0.09_PT041H.grib2 2026-04-29 08:50 420K
20260429T06Z_MSC_RDPS_WindV_IsbL-0200_RLatLon0.09_PT041H.grib2 2026-04-29 08:50 437K
20260429T06Z_MSC_RDPS_WindV_IsbL-0225_RLatLon0.09_PT041H.grib2 2026-04-29 08:50 442K
20260429T06Z_MSC_RDPS_WindV_IsbL-0250_RLatLon0.09_PT041H.grib2 2026-04-29 08:50 344K
20260429T06Z_MSC_RDPS_WindV_IsbL-0275_RLatLon0.09_PT041H.grib2 2026-04-29 08:50 359K
20260429T06Z_MSC_RDPS_WindV_IsbL-0300_RLatLon0.09_PT041H.grib2 2026-04-29 08:50 354K
20260429T06Z_MSC_RDPS_WindV_IsbL-0350_RLatLon0.09_PT041H.grib2 2026-04-29 08:50 363K
20260429T06Z_MSC_RDPS_WindV_IsbL-0400_RLatLon0.09_PT041H.grib2 2026-04-29 08:50 364K
20260429T06Z_MSC_RDPS_WindV_IsbL-0450_RLatLon0.09_PT041H.grib2 2026-04-29 08:50 468K
20260429T06Z_MSC_RDPS_WindV_IsbL-0500_RLatLon0.09_PT041H.grib2 2026-04-29 08:50 468K
20260429T06Z_MSC_RDPS_WindV_IsbL-0550_RLatLon0.09_PT041H.grib2 2026-04-29 08:50 471K
20260429T06Z_MSC_RDPS_WindV_IsbL-0600_RLatLon0.09_PT041H.grib2 2026-04-29 08:50 480K
20260429T06Z_MSC_RDPS_WindV_IsbL-0650_RLatLon0.09_PT041H.grib2 2026-04-29 08:50 485K
20260429T06Z_MSC_RDPS_WindV_IsbL-0700_RLatLon0.09_PT041H.grib2 2026-04-29 08:50 506K
20260429T06Z_MSC_RDPS_WindV_IsbL-0750_RLatLon0.09_PT041H.grib2 2026-04-29 08:50 530K
20260429T06Z_MSC_RDPS_WindV_IsbL-0800_RLatLon0.09_PT041H.grib2 2026-04-29 08:50 565K
20260429T06Z_MSC_RDPS_WindV_IsbL-0850_RLatLon0.09_PT041H.grib2 2026-04-29 08:50 609K
20260429T06Z_MSC_RDPS_WindV_IsbL-0875_RLatLon0.09_PT041H.grib2 2026-04-29 08:50 628K
20260429T06Z_MSC_RDPS_WindV_IsbL-0900_RLatLon0.09_PT041H.grib2 2026-04-29 08:50 644K
20260429T06Z_MSC_RDPS_WindV_IsbL-0925_RLatLon0.09_PT041H.grib2 2026-04-29 08:50 790K
20260429T06Z_MSC_RDPS_WindV_IsbL-0950_RLatLon0.09_PT041H.grib2 2026-04-29 08:50 788K
20260429T06Z_MSC_RDPS_WindV_IsbL-0970_RLatLon0.09_PT041H.grib2 2026-04-29 08:50 786K
20260429T06Z_MSC_RDPS_WindV_IsbL-0985_RLatLon0.09_PT041H.grib2 2026-04-29 08:50 783K
20260429T06Z_MSC_RDPS_WindV_IsbL-1000_RLatLon0.09_PT041H.grib2 2026-04-29 08:50 824K
20260429T06Z_MSC_RDPS_WindV_IsbL-1015_RLatLon0.09_PT041H.grib2 2026-04-29 08:50 817K